User: anonymous   Login
Location: Buckland
(65.9785°N, 161.1281°W)
Time: 05:50:14
(UTC+00:00)
Language:

Altair - Orbit

View from above orbital plane
View from above orbital plane
View from above satellite
View from above satellite

Ground track
Ground track

The orbit data is extracted from the following two-line orbital elements,

1    50U 60009B   20331.47726857 -.00000077 +00000-0 +93711-4 0  9995
2    50 047.2324 338.4042 0112826 088.5301 272.8410 12.20113195690002
Epoch (UTC): 26 November 2020 11:27:16
Eccentricity: 0.0112826
inclination: 47.2324°
perigee height: 1502 km
apogee height: 1682 km
right ascension of ascending node: 338.4042°
argument of perigee: 88.5301°
revolutions per day: 12.20113195
mean anomaly at epoch: 272.8410°
orbit number at epoch: 69000

The dashed part of the orbit path shows where the satellite is in the earth's shadow,  

DLR